Regional Weather Roundup
Issued by NWS

Home | Current Version | Previous Version | Text Only | Print | Product List | Glossary Off
Versions: 1 2 3 4 5 6 7 8 9 10 11 12 13 14 15 16 17 18 19 20 21 22 23 24 25 26 27 28 29 30 31 32 33 34 35 36 37 38 39 40 41 42 43 44 45 46 47 48 49 50

000
ASUS43 KLOT 300812
RWRIL

ILLINOIS REGIONAL WEATHER ROUNDUP
NATIONAL WEATHER SERVICE CHICAGO/ROMEOVILLE IL
300 AM CDT SAT MAY 30 2015

NOTE: "FAIR" INDICATES FEW OR NO CLOUDS BELOW 12,000 FEET WITH NO
SIGNIFICANT WEATHER AND/OR OBSTRUCTIONS TO VISIBILITY.

* THESE STATIONS ARE NOT UNDER NWS QUALITY CONTROL. THEY ALSO MAY NOT
  REPORT WEATHER SUCH AS PRECIPITATION OR FOG.

ILZ001-002-007-009-015-016-024-300900-
NORTHWEST ILLINOIS

CITY           SKY/WX    TMP DP  RH WIND       PRES   REMARKS
MOLINE         CLOUDY    66  63  90 S6        29.94F
STERLING*      CLOUDY    68  64  88 W6        29.95S
SAVANNA*       CLOUDY    69  60  71 SW7       29.93S
$$

ILZ003-004-008-010-011-017-018-300900-
NORTH CENTRAL ILLINOIS

CITY           SKY/WX    TMP DP  RH WIND       PRES   REMARKS
ROCKFORD       LGT RAIN  67  65  93 SW5       29.94S
FREEPORT*      CLOUDY    66  64  93 SW8       29.94F
ROCHELLE*      RAIN      67  65  94 SW7       29.95R
DE KALB*       CLOUDY    65  63  91 SW6       29.96R
PERU*          RAIN      70  65  85 SW9       29.97S
$$

ILZ005-006-012>014-019>023-300900-
NORTHEAST ILLINOIS

CITY           SKY/WX    TMP DP  RH WIND       PRES   REMARKS
CHICAGO-OHARE  CLOUDY    69  64  84 SW5       29.93S
CHICAGO-MIDWAY MOCLDY    72  65  78 SW8       29.93F
AURORA         CLOUDY    70  64  81 SW9       29.95S
LANSING*       CLOUDY    68  63  82 SW7       29.95F
JOLIET*        CLOUDY    71  67  87 SW6       29.94F
WAUKEGAN       CLOUDY    67  62  84 SW5       29.92S
DUPAGE AIRPORT CLOUDY    68  65  90 SW5       29.94R
KANKAKEE*      CLOUDY    69  67  93 SW6       29.97S
WHEELING       MOCLDY    70  65  84 SW3       29.94S
MORRIS*        CLOUDY    69  65  89 W7        29.94S
ROMEOVILLE*    MOCLDY    69  64  86 SW9       29.95S
NORTHERLY ISL    N/A     71  63  75 W5          N/A
$$

LMZ740>746-300900-
SOUTHERN LAKE MICHIGAN

STATION/POSITION SKY/WX   TEMP    WIND        PRES    VSBY  WAVE
                          AIR SEA DIR/SP/G                  HT/PER
                          (F)     (DEG/KT/KT) (MB)    (MI)  (FT/S)
SOUTHERN BUOY              45 38  210/  8/  8 1013.5R         0
HARRISON CRIB              72     240/ 14/ 18   N/A
BURNHAM HARBOR             71     170/  7/  9   N/A
CALUMET HARBOR             70     210/  6/  9   N/A
BURNS HARBOR               70     210/ 12/ 15 1014.6S
MICHIGAN CITY              70     170/ 14/ 18   N/A
MICHIGAN CITY 6N           63 56  230/  8/ 10   N/A           1/ 2
ST. JOSEPH                 62 58  230/  8/ 10   N/A           1/ 2
$$

ILZ025>027-034>036-040-047-049-050-058-095>099-300900-
WEST-CENTRAL ILLINOIS

CITY           SKY/WX    TMP DP  RH WIND       PRES   REMARKS
QUINCY         LGT RAIN  66  64  93 CALM      29.96S
GALESBURG*     RAIN      65  63  93 S3        29.96F
MACOMB*        LGT RAIN  65  64  96 CALM      29.97F
JACKSONVILLE*  TSTM      67  66  96 N3        29.96R
PITTSFIELD*    LGT RAIN  66  64  93 CALM      29.98R
$$

ILZ028>032-037-038-041>044-048-051>054-059>061-300900-
CENTRAL ILLINOIS

CITY           SKY/WX    TMP DP  RH WIND       PRES   REMARKS
PONTIAC        RAIN      70  69  98 W14       29.98S
BLOOMINGTON    LGT RAIN  68  66  94 W13       29.98F
DECATUR        CLOUDY    70  65  84 NW6       29.98F
PEORIA         LGT RAIN  70  66  87 CALM      29.96F
LACON*         RAIN      68  65  91 SW5       29.96F
LINCOLN*       LGT RAIN  67  65  93 CALM      29.95F
SPRINGFIELD    LGT RAIN  68  65  90 E3        29.97S
TAYLORVILLE    CLOUDY    66  64  94 CALM      29.97F
$$

ILZ033-039-045-046-055>057-062-063-300900-
EAST-CENTRAL ILLINOIS

CITY           SKY/WX    TMP DP  RH WIND       PRES   REMARKS
CHAMPAIGN      CLOUDY    69  65  86 W5        29.99F
DANVILLE*      MOCLDY    68  65  89 S6        29.97S
RANTOUL*       CLOUDY    70  67  92 SW8       29.99S
MATTOON        CLOUDY    68  65  90 CALM      29.97F
PARIS*         PTCLDY    67  64  89 S3        30.00F
$$

ILZ079-100>102-300900-
SOUTHWEST ILLINOIS

CITY           SKY/WX    TMP DP  RH WIND       PRES   REMARKS
ALTON          CLOUDY    68  68 100 CALM      29.95F
BELLEVILLE     CLOUDY    67  67 100 SE2       29.94F
CAHOKIA*       CLOUDY    69  66  90 W5        29.96S
SPARTA*        CLOUDY    68  67  97 SE7       29.97F
$$

ILZ064>066-069>071-074>076-080>082-084>086-088>090-092>094-300900-
SOUTH-CENTRAL ILLINOIS

CITY           SKY/WX    TMP DP  RH WIND       PRES   REMARKS
CARBONDALE     MOCLDY    68  67  96 SE3       29.97F
CAIRO*         MOCLDY    74  69  83 SE8       29.97F
EFFINGHAM*     CLOUDY    68  64  89 SE3       29.99F
MARION         CLOUDY    72  68  88 SE5       29.99F
MT. VERNON     CLOUDY    70  64  83 CALM      29.99F
CENTRALIA*     CLOUDY    67  66  94 SE8       29.97F
SALEM*         CLOUDY    70  67  89 CALM      29.98S
METROPOLIS*    CLOUDY    73  70  90 CALM      29.99F
$$

ILZ067-068-072-073-078-083-087-091-300900-
SOUTHEAST ILLINOIS

CITY           SKY/WX    TMP DP  RH WIND       PRES   REMARKS
LAWRENCEVILLE  PTCLDY    67  64  90 S5        30.00F
FLORA*         PTCLDY    67  66  97 SE6       29.99S
FAIRFIELD*     PTCLDY    68  66  92 CALM      29.99S
HARRISBURG*    MOCLDY    71  69  96 CALM      30.01F
ROBINSON*      PTCLDY    68  65  90 SW3       30.01F
CARMI*         PTCLDY    66  63  88 CALM      30.00S
$$

ABBREVIATIONS USED IN REMARKS
   TC - TEMPERATURE IN CELSIUS
  WCI - WIND CHILL INDEX
   HX - HEAT INDEX
  VSB - VISIBILITY
$$



USA.gov is the U.S. government's official web portal to all federal, state and local government web resources and services.